Wind_Speed
38 38 38 38 38 38 38 38 38 37 37 38 38 39 39 39 40 40 40 40 40 40 41 41 41 41 41 40 39 38 38 37 35 33 30 30 30 29 26 23 23 26 29 31 32 32 32 30 29 28 27 25 24 23 22 21 20 19 18 17 16 15 14 14 13 13 14 14 14
37 36 36 36 36 36 37 37 37 37 37 37 37 37 38 38 39 39 40 40 40 40 40 41 41 41 41 40 39 38 38 37 35 33 31 30 30 30 28 25 23 24 25 27 29 29 28 27 28 28 27 26 25 24 23 22 21 20 19 18 17 16 15 14 14 13 13 13 13
35 35 35 35 35 35 35 35 36 36 36 36 36 36 36 37 37 38 39 39 40 40 40 40 41 40 40 39 38 38 37 36 35 33 31 30 29 30 29 27 24 22 21 21 21 22 23 24 27 28 28 27 26 25 24 23 22 21 20 19 18 17 16 15 14 14 13 13 14
34 34 34 34 34 34 33 34 34 34 35 35 35 35 35 36 36 37 38 39 39 39 39 39 40 39 39 38 38 37 36 35 34 32 31 30 29 29 30 29 26 23 20 18 16 17 18 21 24 27 29 27 26 25 25 24 23 22 22 21 20 18 17 16 15 15 14 15 15
33 33 33 33 33 32 32 32 32 33 33 34 34 35 35 36 36 37 38 38 39 39 39 38 38 38 38 37 36 36 35 34 33 32 31 29 28 28 29 30 27 24 22 19 17 15 15 16 20 25 28 27 26 25 25 25 24 24 23 22 21 20 18 17 16 16 16 16 16
33 33 32 32 32 31 31 32 32 32 33 34 34 35 36 36 37 37 38 38 39 38 38 37 37 36 36 35 35 34 34 33 32 31 30 28 27 27 29 30 28 26 24 22 20 17 15 15 16 21 26 27 26 26 26 25 25 24 23 22 21 20 19 18 17 16 16 16 16
32 32 32 32 31 31 31 32 32 33 34 35 35 36 36 37 37 38 38 38 38 38 38 37 36 36 35 34 34 33 33 32 32 31 29 28 26 26 27 29 29 28 26 25 23 21 18 16 15 17 21 25 26 26 25 25 24 23 22 21 21 20 18 17 17 17 16 16 15
31 31 31 31 31 31 32 33 34 35 36 36 36 37 37 37 38 38 38 38 38 38 37 36 36 35 34 33 32 32 31 31 31 30 29 27 24 24 25 28 30 29 28 28 26 24 21 19 16 16 18 21 24 25 24 23 22 22 21 20 19 18 18 17 17 17 17 16 16
31 31 31 31 31 32 33 34 35 36 37 37 37 37 37 37 38 38 38 39 38 38 37 36 35 34 33 32 31 30 30 30 30 30 28 26 24 23 24 27 29 30 30 30 28 25 22 21 18 17 17 19 21 22 23 22 21 21 20 20 20 20 19 19 19 18 19 19 18
31 31 32 32 32 33 34 35 36 37 37 37 37 37 37 37 37 38 38 38 38 37 36 35 34 33 32 30 29 29 28 28 29 29 27 26 24 23 23 25 28 30 31 31 30 27 24 22 21 20 19 19 20 21 22 22 22 21 22 22 22 22 21 20 20 21 22 23 23
31 31 32 33 33 34 35 36 37 37 37 37 37 36 37 37 37 37 37 37 37 36 35 34 33 32 30 29 28 28 28 27 27 27 26 25 23 23 23 24 27 29 30 31 32 30 27 25 24 23 21 21 21 22 23 23 23 23 23 23 23 23 22 22 22 24 27 29 29
31 32 32 33 33 34 35 36 37 37 37 37 36 36 36 37 37 37 37 36 35 35 34 33 32 30 29 28 27 27 27 27 25 24 23 23 22 22 22 24 26 28 28 28 30 31 31 30 28 27 25 23 23 23 23 24 24 24 23 23 24 23 23 24 25 27 29 31 31
31 32 32 33 33 34 35 36 37 37 37 36 36 36 36 37 37 37 36 35 34 33 32 32 30 29 28 27 27 27 27 26 24 22 21 20 21 21 22 24 26 26 24 22 23 27 29 29 29 28 26 25 24 24 23 22 23 23 24 24 25 26 27 28 28 29 29 29 28
31 32 32 32 33 33 34 35 36 36 36 36 35 35 36 36 36 36 35 34 32 31 31 30 29 28 27 26 27 28 28 26 22 19 18 18 19 20 21 23 26 26 23 19 18 20 22 24 24 25 24 23 23 22 21 21 21 22 23 23 25 27 29 30 29 28 27 25 24
31 31 31 31 32 32 33 34 35 36 36 36 35 34 35 35 36 35 34 33 31 30 29 29 28 27 26 26 26 28 28 26 20 17 15 15 16 17 18 20 22 24 24 22 20 19 19 19 20 20 20 19 20 20 20 20 21 22 23 24 25 26 27 28 28 27 25 23 22
30 30 30 30 30 31 32 34 35 36 36 35 33 33 33 34 35 35 33 31 30 28 27 26 26 25 25 25 25 27 27 24 18 14 13 13 13 13 13 13 15 17 20 21 22 22 21 20 20 19 19 18 19 19 20 21 22 23 23 23 24 24 24 25 26 25 25 24 22
29 29 28 29 30 31 32 33 34 35 35 33 32 32 32 33 34 33 32 29 28 26 24 23 22 22 22 23 24 25 24 21 14 10 11 13 14 13 11 10 9 10 12 15 17 19 20 20 20 19 18 18 19 20 21 22 22 22 22 22 23 23 23 23 24 25 25 25 23
29 28 28 28 29 30 31 32 33 34 33 32 31 30 31 32 33 32 30 27 25 23 21 20 19 18 19 20 21 22 22 19 12 6 8 12 15 16 15 14 12 11 11 12 13 15 16 16 16 16 17 17 18 19 19 20 20 21 21 21 21 22 22 22 23 24 24 24 23
28 27 27 28 29 30 31 32 33 33 33 32 30 29 29 30 31 30 28 25 22 20 19 18 17 16 15 16 17 18 18 17 12 5 4 10 14 17 18 17 16 14 13 13 13 13 14 14 15 15 16 17 17 17 18 18 19 19 20 20 21 21 21 21 22 22 23 23 23
29 28 28 28 29 29 31 31 32 32 32 31 29 28 28 29 29 29 26 23 21 19 18 17 16 15 13 13 12 13 14 14 12 8 3 4 8 12 14 16 17 17 17 17 17 16 16 16 16 16 17 17 17 17 17 18 19 19 20 21 21 21 21 21 21 22 22 21 21
29 29 28 28 28 29 30 31 31 31 30 30 29 27 26 27 28 28 26 23 20 19 18 17 16 15 14 12 11 11 11 11 12 12 11 7 3 3 7 10 14 16 18 19 19 19 19 18 18 18 18 18 17 17 17 17 18 19 20 21 22 22 22 22 21 20 19 18 17
30 29 28 28 28 29 29 30 30 30 29 28 28 27 25 25 26 26 25 23 21 20 20 18 17 17 16 15 14 14 14 14 16 18 19 18 15 11 7 5 6 9 11 13 14 15 16 16 16 16 16 16 16 16 16 16 17 18 19 20 21 21 21 20 19 17 15 14 13
29 29 29 29 28 28 29 29 29 29 27 27 27 26 25 24 24 25 25 24 23 22 22 21 20 19 19 19 19 18 19 19 21 22 23 24 23 21 18 15 12 10 9 8 7 7 8 9 10 11 12 13 13 14 14 14 14 15 16 17 18 18 17 17 16 15 14 13 13
29 29 29 29 29 29 29 29 29 28 27 26 26 26 25 23 23 24 24 24 24 23 23 23 22 22 22 22 22 22 23 24 25 25 26 26 26 26 24 23 20 18 16 15 12 10 8 7 7 7 7 8 8 9 9 9 9 10 10 11 12 13 13 14 14 13 13 13 13
30 29 29 29 29 29 29 28 28 27 26 25 25 25 25 24 23 23 23 23 23 23 23 23 23 23 23 24 24 24 25 26 26 27 27 27 27 27 27 27 25 23 20 18 16 14 13 11 11 10 10 9 9 9 9 8 8 7 7 7 8 9 10 11 11 11 11 11 11
30 30 30 29 29 29 29 28 27 27 26 24 23 23 24 24 23 23 23 23 23 22 22 22 22 23 23 23 24 24 25 25 26 26 27 27 28 28 28 27 26 25 22 19 17 15 14 14 13 13 12 12 12 11 11 10 10 9 9 8 7 7 8 8 9 10 10 10 10
31 31 30 30 30 29 29 28 27 26 25 24 23 23 22 23 22 22 23 24 23 22 22 22 22 23 23 23 23 23 24 24 24 24 25 25 26 27 27 27 26 24 22 20 18 16 14 13 13 12 12 12 11 11 11 10 10 9 8 8 7 6 6 6 7 7 8 9 10
33 32 31 31 30 30 29 28 27 26 25 24 23 22 21 21 21 22 22 24 24 23 22 23 23 23 23 23 23 23 23 23 23 22 22 22 22 23 24 24 24 23 21 20 19 18 16 13 12 12 12 12 12 12 11 11 10 10 9 8 8 7 6 5 5 4 4 5 6
33 32 32 31 31 30 29 29 27 26 25 24 23 22 21 20 21 20 21 22 24 24 23 23 23 23 23 23 23 22 22 22 22 21 21 20 21 20 20 19 20 20 19 18 17 17 16 15 14 14 14 14 14 13 13 12 11 11 10 10 10 9 8 7 6 5 3 2 1
33 33 32 31 31 30 30 29 28 26 25 24 23 22 21 20 20 20 20 21 22 23 23 22 22 22 22 22 22 22 22 22 22 22 22 21 22 22 21 20 18 17 17 16 15 14 14 13 14 15 16 16 16 15 15 14 13 12 12 12 11 11 10 9 8 7 6 5 4
32 32 32 31 31 30 30 29 28 26 25 24 23 22 21 21 21 20 20 20 20 20 21 21 21 20 21 21 21 22 22 23 23 23 24 24 24 24 23 22 20 17 15 14 14 12 11 11 13 15 17 17 17 17 16 15 14 13 13 13 12 12 11 11 10 9 8 7 6
31 31 31 31 30 30 30 29 29 27 26 25 23 22 21 21 21 20 20 19 19 19 19 19 19 19 19 20 21 21 22 23 24 24 25 26 26 26 25 24 22 18 14 13 12 11 9 10 12 14 16 17 17 16 15 14 14 13 13 13 12 12 12 11 10 9 7 6 6
30 31 31 30 30 30 30 29 29 28 27 25 24 22 21 21 21 20 20 19 19 19 18 17 17 17 18 19 20 21 22 23 24 24 25 26 27 27 27 25 22 17 13 11 10 9 8 8 10 13 15 16 15 14 13 12 12 12 12 12 12 12 11 11 10 8 6 4 4
30 30 30 30 30 29 29 29 29 28 28 26 24 23 21 21 21 21 20 19 19 19 18 16 15 16 17 18 19 20 21 22 23 24 25 26 27 27 27 24 20 16 12 11 9 7 6 6 9 11 14 14 13 12 11 11 11 12 12 12 12 11 11 10 8 6 4 3 2
29 30 30 30 29 29 29 28 28 28 28 27 25 24 22 21 21 20 20 19 18 17 17 16 15 16 16 18 18 19 20 21 22 23 24 25 26 26 25 22 18 14 11 11 9 6 4 4 7 10 12 12 11 10 9 10 10 11 11 11 11 11 11 9 7 4 3 3 3
28 29 29 30 29 29 28 28 27 27 27 27 26 25 23 22 21 20 19 18 16 16 16 16 16 16 17 17 18 18 19 19 20 21 22 23 24 24 23 20 15 13 12 13 11 4 2 1 5 9 10 10 9 8 8 9 9 10 10 10 10 10 10 8 6 4 4 5 5
28 28 29 29 29 29 28 28 27 26 26 26 25 25 24 23 22 20 19 18 16 15 15 16 17 17 16 16 16 16 16 17 18 18 19 20 21 22 21 17 13 12 14 16 12 6 5 2 6 8 9 9 8 7 8 8 9 9 8 8 8 8 8 7 6 5 6 7 6
27 27 28 28 29 29 28 28 27 26 25 25 24 24 24 23 22 21 20 19 17 15 14 15 16 15 15 14 14 14 14 15 15 16 16 17 18 19 17 14 11 12 16 18 13 9 6 6 8 9 9 8 7 6 7 7 7 7 7 6 6 6 6 6 6 7 7 8 7
27 27 27 27 28 28 28 28 27 26 25 24 23 23 23 23 23 22 21 20 18 16 15 14 14 14 13 12 12 13 13 13 14 14 14 14 15 16 14 11 8 10 14 17 13 9 7 9 10 10 10 8 7 6 6 6 6 6 5 4 3 3 3 3 5 6 6 6 7
27 26 26 26 27 27 28 28 28 27 25 24 23 22 22 22 22 22 21 20 19 17 15 14 14 13 12 11 11 12 13 14 14 14 14 13 13 13 12 9 7 8 12 15 14 11 9 9 10 11 11 10 9 8 7 6 6 5 5 4 4 3 2 1 1 2 3 3 4
26 26 25 25 25 26 27 27 28 27 26 25 23 22 21 21 21 21 21 21 20 18 16 14 13 12 11 10 11 12 13 14 14 15 14 12 11 11 10 8 7 7 10 13 14 12 9 8 9 11 13 13 12 11 11 10 9 8 7 6 5 5 4 4 4 3 2 1 1
Wind_Direction
329 328 328 327 327 326 325 325 325 325 326 325 325 325 324 323 322 321 320 319 317 315 314 311 309 307 305 303 301 300 299 298 298 296 290 283 277 275 275 276 274 272 269 261 248 238 231 224 220 217 216 215 214 214 215 216 217 218 218 216 214 213 213 213 214 215 217 220 223
331 330 330 329 329 328 328 328 328 328 328 328 328 327 327 326 324 323 321 320 318 316 314 311 309 307 305 302 300 298 297 296 296 294 289 281 274 271 272 276 277 274 268 258 245 235 226 218 212 210 210 209 210 212 213 215 216 217 216 215 214 214 215 216 216 216 216 218 221
333 333 332 332 333 333 332 332 331 331 331 330 330 329 329 328 326 324 322 320 318 317 315 313 310 308 306 303 301 298 296 295 294 291 287 280 272 268 268 270 270 267 261 255 243 231 222 216 210 207 206 206 209 211 213 214 215 215 215 214 214 215 217 220 221 222 222 222 223
336 336 337 337 337 337 337 336 335 334 334 333 332 331 330 329 327 325 323 321 320 318 316 315 312 310 308 305 303 300 297 295 293 290 285 279 271 265 264 266 264 257 251 250 244 232 220 212 206 204 203 204 207 210 212 213 213 213 213 213 213 214 216 219 222 225 227 228 228
340 340 341 341 341 340 340 339 339 338 336 335 334 333 332 330 328 326 325 323 321 320 318 316 314 312 309 307 304 302 299 296 293 289 284 278 270 263 261 262 259 249 239 238 240 236 223 207 199 198 200 202 205 206 207 208 207 207 207 209 210 211 213 215 218 222 226 229 231
343 343 343 343 343 343 343 342 341 340 339 338 337 336 334 332 330 328 327 325 322 320 319 317 315 312 310 307 304 302 299 296 293 290 285 279 270 263 259 259 255 245 233 227 231 235 231 216 201 196 198 201 202 203 203 204 203 203 203 204 205 207 209 210 212 217 221 226 230
345 345 345 345 346 346 345 344 343 342 341 340 339 338 336 334 332 330 328 326 324 322 321 319 316 314 311 307 304 302 300 298 295 291 287 281 272 264 259 257 255 247 234 225 226 231 233 226 211 199 197 200 201 202 202 202 202 203 203 204 206 207 208 209 210 213 216 221 226
346 346 347 347 348 347 347 346 345 344 343 342 341 340 338 336 334 331 329 327 325 324 322 320 318 315 312 309 306 303 302 301 299 295 289 283 275 266 259 256 255 250 240 229 227 228 229 226 216 203 196 196 198 200 200 201 202 204 205 206 208 210 213 215 216 217 218 220 223
347 347 348 349 349 348 347 346 346 345 345 344 342 341 339 337 335 333 330 328 326 325 323 321 320 317 314 310 307 306 305 305 303 299 293 285 278 270 262 256 255 252 244 234 229 225 224 222 219 211 204 201 200 200 201 203 206 208 210 212 214 216 219 223 226 228 229 230 230
347 349 350 350 350 349 348 347 346 346 346 345 344 342 341 339 336 334 331 329 327 325 324 323 322 319 316 313 310 309 309 308 306 301 295 287 280 274 266 259 255 252 246 236 229 224 221 220 220 217 211 207 205 204 205 207 210 213 215 217 218 221 225 229 235 240 242 242 242
349 350 351 351 350 349 348 348 347 347 347 346 345 344 342 340 337 334 332 330 328 326 325 325 324 322 319 315 313 312 312 310 306 301 295 287 281 276 271 263 257 253 247 238 229 224 221 221 222 219 215 212 210 210 210 211 214 216 219 220 222 226 231 237 244 247 248 248 249
350 351 351 351 350 349 349 349 348 348 348 347 346 345 343 341 338 336 334 332 329 328 328 328 327 324 321 317 315 315 314 311 306 299 293 287 282 278 273 265 257 251 245 238 229 224 222 223 222 220 217 216 215 216 217 218 220 222 225 227 230 235 241 246 249 249 247 246 248
351 352 352 351 351 350 350 350 349 349 349 348 348 346 344 342 340 338 336 334 332 331 330 330 329 326 323 320 318 318 316 312 305 297 290 286 282 278 272 263 253 244 238 232 226 222 220 220 220 219 219 219 220 221 221 223 225 228 231 235 239 244 249 250 248 244 241 241 245
353 353 352 351 351 351 351 351 351 351 350 349 349 347 346 344 342 341 339 336 334 332 332 331 331 330 327 324 322 321 318 313 304 293 284 281 278 273 267 259 249 239 230 224 219 215 213 213 215 216 218 220 222 223 223 225 228 231 233 235 240 245 248 247 242 238 236 239 244
354 354 352 351 350 351 352 352 352 352 351 350 350 349 347 346 345 343 341 338 335 334 333 333 333 332 330 328 325 322 319 314 303 288 276 270 265 260 256 252 246 238 232 229 226 220 215 212 213 216 219 221 223 224 225 225 227 230 232 232 235 236 238 240 236 234 236 241 245
354 353 352 350 350 351 353 354 353 353 352 352 351 350 349 349 348 346 343 339 337 336 336 335 334 333 331 328 324 322 320 316 304 285 268 256 244 236 235 240 241 239 237 237 238 235 230 225 223 223 224 226 227 227 226 225 225 226 228 228 229 230 231 232 232 234 238 243 245
354 353 351 349 349 350 353 354 354 354 353 352 351 351 352 352 351 348 344 341 340 339 338 337 336 333 329 325 322 321 322 321 309 285 261 245 231 222 221 231 242 246 245 244 243 242 238 234 230 228 228 229 229 229 227 226 226 226 227 228 229 230 231 231 234 237 240 242 240
353 352 350 348 348 350 352 354 354 354 354 353 353 353 354 355 353 350 347 345 345 345 344 342 340 336 331 325 322 322 324 326 322 291 246 235 229 228 231 239 247 250 247 243 240 238 235 232 229 227 227 228 230 230 230 230 231 231 232 233 233 233 233 234 236 238 238 237 235
353 351 349 347 347 348 351 353 353 354 354 355 354 355 356 358 357 353 350 350 353 355 354 351 349 346 340 333 328 325 326 330 334 321 237 221 223 228 233 239 241 240 236 230 225 222 221 220 221 222 224 226 229 232 233 235 236 236 237 237 236 236 236 236 237 236 235 233 234
352 350 348 346 345 346 348 350 351 352 354 355 355 356 359 1 0 357 356 358 2 6 6 4 2 1 358 352 344 338 337 341 348 355 349 215 215 222 229 234 235 233 229 224 218 214 212 212 213 215 218 221 224 228 231 234 236 237 237 237 237 237 238 237 237 235 234 235 238
351 349 347 344 343 343 345 347 348 351 353 356 357 358 360 3 3 2 1 3 9 15 18 17 16 17 19 20 17 15 13 13 20 27 33 41 67 182 209 219 221 221 220 218 216 214 212 210 208 209 211 213 215 219 223 226 229 231 233 235 236 237 237 237 235 235 235 236 238
349 348 346 344 343 342 343 344 346 348 352 355 358 359 0 5 6 4 3 5 13 22 28 30 30 33 37 42 47 49 50 48 48 47 45 44 46 52 67 106 156 179 190 197 201 203 204 203 201 201 202 203 205 207 210 213 217 221 226 230 232 233 233 231 229 228 227 228 229
347 347 346 345 343 343 343 343 344 346 350 354 358 359 1 4 6 6 4 5 12 21 30 35 38 42 48 53 59 63 65 64 62 58 55 50 47 45 47 53 66 80 95 109 130 154 169 177 181 185 188 191 194 196 199 202 205 210 215 220 223 224 221 218 215 213 213 215 218
345 346 346 345 345 344 344 344 344 345 348 352 357 360 1 3 6 6 5 4 7 14 23 31 37 43 49 55 60 65 67 69 68 66 63 59 53 48 44 43 46 51 58 63 71 81 97 113 126 138 150 160 166 171 176 180 184 188 192 197 200 201 199 198 197 198 201 206 212
346 346 347 347 347 346 346 345 345 345 347 350 355 359 2 4 6 7 6 4 4 7 12 20 27 33 39 46 53 60 65 67 68 69 68 66 62 56 50 44 41 41 44 50 56 65 74 81 87 92 98 103 107 111 114 116 119 123 130 140 150 158 164 168 172 178 185 193 200
350 350 349 349 349 349 349 348 347 346 347 349 352 357 2 5 6 7 6 4 2 2 4 8 13 18 23 29 38 46 54 59 62 64 66 67 67 65 60 53 45 40 37 38 42 51 61 68 73 76 78 80 82 83 84 83 83 83 85 90 97 108 120 130 140 150 160 169 176
355 354 353 353 352 352 351 350 349 348 348 350 351 355 360 4 7 8 8 4 1 360 359 360 1 3 7 11 17 25 33 40 46 50 55 59 63 66 65 61 55 47 39 33 30 32 38 48 54 58 60 60 60 60 60 60 58 57 57 58 61 67 78 92 107 123 138 151 161
358 357 356 356 355 355 354 353 352 351 351 352 352 353 356 1 6 9 9 5 1 358 357 357 356 356 357 359 2 7 12 18 24 30 35 41 48 54 60 62 60 55 47 37 30 23 19 22 30 37 40 40 40 39 39 39 38 36 34 34 33 35 39 48 63 84 110 136 155
359 359 358 358 357 357 357 356 356 355 354 354 353 353 354 358 2 7 10 9 3 357 355 355 354 353 353 354 355 356 359 3 7 11 16 20 24 30 36 43 48 50 48 43 35 25 16 10 13 19 23 24 25 24 24 23 22 20 17 17 16 16 16 17 16 15 15 23 140
0 360 359 359 358 358 359 359 358 357 356 356 355 355 355 356 359 3 8 11 6 359 352 351 351 352 353 353 354 354 356 357 358 360 3 6 8 10 11 13 19 29 37 38 37 30 20 10 7 8 11 12 12 12 11 11 9 7 6 5 5 5 5 5 2 358 352 344 331
0 360 359 358 358 358 359 359 359 359 358 357 357 358 359 359 359 360 4 9 9 2 353 347 347 349 351 353 354 356 358 359 359 0 2 3 5 4 3 2 4 12 24 33 31 26 15 3 358 360 2 4 4 5 5 4 3 1 360 359 358 358 358 358 358 356 351 343 334
359 359 359 358 357 357 358 359 359 359 359 358 359 0 2 2 0 359 1 6 10 7 358 347 344 346 349 352 355 357 360 1 3 5 6 6 7 6 5 4 4 8 19 32 30 20 2 347 346 351 356 359 1 2 2 2 1 359 358 356 355 354 353 355 357 358 357 352 343
358 357 357 357 356 355 356 357 358 359 359 358 359 0 2 3 2 0 2 6 12 12 5 351 346 347 350 353 356 359 1 3 5 6 7 8 9 10 9 9 9 13 24 37 32 15 351 334 339 347 353 357 360 1 1 360 358 357 357 355 353 351 351 351 355 1 7 10 3
356 356 355 355 354 354 354 354 356 357 358 358 358 360 1 2 2 3 4 8 14 16 12 360 352 350 352 354 358 1 3 4 5 6 8 9 10 12 12 12 14 20 31 42 33 9 338 320 334 346 354 359 2 2 359 356 355 355 355 354 353 352 351 351 355 6 25 48 63
354 353 353 353 353 352 352 352 353 354 356 356 357 357 358 360 1 3 5 8 13 17 17 10 359 354 354 357 359 2 5 7 7 8 8 9 11 12 13 14 18 24 32 33 21 359 315 306 334 349 358 4 7 4 358 353 353 353 354 354 355 357 358 359 3 20 57 89 105
352 351 351 351 351 351 350 350 351 352 353 354 355 355 356 356 357 359 2 5 9 14 17 14 4 359 358 0 3 6 8 9 10 9 9 10 12 13 14 16 21 26 27 23 15 16 185 296 344 355 4 11 11 4 355 350 350 351 353 356 1 5 10 16 26 54 85 101 112
348 349 348 348 348 349 349 348 349 350 351 352 352 353 353 353 353 353 354 358 1 5 9 10 7 4 3 4 6 9 11 12 11 10 10 10 13 15 16 17 24 30 30 28 38 82 130 48 6 8 15 18 12 1 349 345 344 346 349 356 4 14 25 42 61 81 94 99 101
344 345 346 346 346 346 347 347 347 348 348 349 349 349 349 349 349 349 349 350 353 355 356 359 4 6 6 6 7 10 12 12 12 10 9 11 14 16 16 18 27 35 37 38 53 81 90 32 21 23 26 25 14 357 344 339 338 339 343 351 2 20 42 68 86 94 97 97 94
341 342 344 344 344 344 344 345 346 346 346 346 346 346 346 346 346 346 345 346 347 347 347 348 354 360 4 5 5 6 8 9 9 8 8 10 14 16 17 17 25 38 41 41 47 51 42 28 27 29 30 28 19 3 346 336 333 332 333 338 352 17 48 82 98 100 99 99 97
337 339 341 343 343 343 343 344 345 345 345 344 344 343 342 342 341 341 342 343 344 344 343 343 345 349 354 358 1 3 4 4 4 4 4 7 13 17 17 15 13 26 37 40 40 37 32 31 33 33 33 32 29 23 13 1 353 345 339 334 332 332 330 308 133 114 107 104 96
335 337 340 342 342 341 342 343 345 346 346 345 344 341 339 337 335 336 338 341 344 345 345 343 343 345 349 355 359 2 3 2 1 1 1 4 11 17 18 13 360 3 20 34 36 34 32 33 36 38 38 38 37 37 35 34 30 25 15 1 346 329 314 301 285 269 249 236 261
Height
1477 1475 1474 1472 1470 1468 1466 1464 1463 1461 1459 1457 1455 1453 1451 1449 1447 1445 1443 1442 1440 1438 1436 1434 1432 1431 1429 1428 1428 1427 1425 1424 1424 1424 1424 1423 1423 1422 1421 1420 1420 1420 1420 1419 1419 1419 1419 1421 1422 1422 1422 1423 1423 1424 1424 1425 1426 1427 1427 1428 1429 1430 1431 1432 1433 1434 1434 1435 1436
1475 1474 1473 1471 1469 1467 1465 1463 1461 1460 1458 1456 1454 1452 1450 1448 1446 1444 1442 1440 1438 1436 1434 1432 1430 1429 1427 1426 1425 1424 1423 1422 1422 1421 1421 1420 1420 1420 1419 1419 1418 1419 1419 1418 1417 1417 1417 1419 1419 1420 1419 1420 1420 1421 1422 1423 1424 1424 1425 1426 1427 1428 1429 1430 1431 1432 1433 1434 1434
1474 1473 1471 1470 1468 1466 1464 1462 1460 1459 1457 1455 1453 1451 1449 1447 1445 1443 1440 1438 1436 1434 1433 1430 1428 1426 1425 1423 1422 1422 1421 1420 1419 1419 1418 1418 1418 1418 1418 1418 1417 1417 1417 1416 1415 1415 1416 1418 1418 1417 1417 1417 1418 1419 1419 1420 1421 1423 1423 1424 1425 1426 1427 1428 1429 1430 1432 1432 1433
1474 1472 1470 1469 1467 1465 1464 1462 1460 1458 1456 1454 1452 1450 1449 1447 1444 1442 1439 1437 1435 1433 1431 1429 1427 1424 1423 1421 1420 1419 1418 1417 1417 1416 1415 1415 1415 1416 1416 1416 1416 1415 1415 1415 1414 1414 1415 1415 1415 1415 1414 1414 1415 1416 1417 1418 1419 1420 1421 1422 1423 1424 1425 1426 1428 1429 1430 1431 1432
1473 1471 1470 1468 1467 1465 1463 1461 1459 1457 1455 1453 1451 1449 1447 1445 1443 1441 1438 1436 1434 1431 1429 1427 1425 1423 1421 1420 1418 1417 1416 1415 1414 1414 1413 1413 1413 1413 1414 1414 1414 1414 1414 1414 1414 1414 1414 1414 1414 1413 1411 1412 1413 1415 1416 1416 1418 1419 1419 1420 1421 1422 1423 1424 1425 1427 1429 1429 1430
1472 1471 1469 1468 1466 1464 1463 1461 1459 1457 1455 1453 1450 1449 1446 1444 1442 1439 1437 1435 1432 1430 1428 1426 1424 1422 1420 1418 1417 1415 1414 1413 1412 1411 1411 1410 1410 1411 1412 1413 1412 1412 1412 1413 1413 1412 1413 1413 1414 1412 1410 1410 1411 1413 1414 1415 1416 1416 1417 1419 1419 1420 1421 1422 1423 1425 1427 1428 1429
1472 1470 1469 1467 1465 1464 1462 1460 1458 1456 1454 1452 1449 1447 1445 1443 1440 1438 1436 1434 1431 1429 1426 1424 1422 1420 1419 1416 1415 1413 1412 1411 1410 1409 1409 1408 1408 1409 1409 1410 1410 1410 1410 1411 1411 1411 1411 1411 1411 1409 1408 1409 1409 1410 1412 1413 1414 1415 1416 1417 1418 1419 1419 1420 1421 1423 1424 1426 1428
1472 1470 1469 1467 1465 1463 1461 1459 1457 1455 1453 1451 1449 1446 1444 1441 1439 1437 1434 1432 1429 1427 1425 1423 1421 1419 1417 1415 1413 1412 1410 1409 1408 1407 1407 1406 1406 1407 1407 1408 1408 1408 1408 1409 1409 1410 1410 1409 1409 1408 1407 1407 1408 1409 1410 1411 1413 1414 1415 1416 1417 1418 1419 1419 1420 1422 1423 1425 1426
1471 1469 1468 1466 1464 1462 1460 1458 1456 1454 1452 1449 1447 1445 1443 1440 1438 1435 1433 1430 1428 1426 1424 1421 1419 1417 1415 1414 1412 1410 1409 1408 1406 1405 1405 1404 1404 1405 1405 1405 1406 1406 1406 1407 1407 1408 1408 1408 1408 1407 1407 1407 1407 1407 1408 1410 1412 1413 1414 1415 1416 1417 1418 1419 1419 1421 1422 1424 1425
1470 1469 1467 1465 1463 1461 1459 1457 1455 1453 1451 1449 1446 1444 1442 1439 1437 1434 1432 1429 1427 1424 1422 1420 1417 1415 1414 1412 1410 1409 1408 1406 1405 1404 1403 1403 1403 1403 1403 1404 1404 1404 1404 1404 1406 1406 1407 1406 1407 1407 1407 1406 1406 1406 1407 1409 1410 1412 1413 1414 1415 1415 1416 1417 1418 1420 1421 1423 1424
1470 1468 1467 1465 1463 1461 1459 1456 1454 1452 1450 1447 1445 1443 1440 1438 1436 1434 1431 1428 1425 1423 1420 1418 1416 1414 1412 1410 1409 1407 1406 1405 1404 1402 1402 1401 1401 1401 1402 1402 1402 1402 1402 1402 1404 1404 1405 1405 1406 1406 1406 1405 1405 1405 1406 1407 1409 1410 1412 1413 1414 1414 1415 1416 1417 1418 1420 1421 1422
1469 1468 1466 1464 1462 1460 1458 1455 1453 1451 1449 1447 1444 1442 1439 1437 1435 1432 1430 1427 1424 1421 1419 1417 1415 1413 1411 1409 1408 1406 1405 1403 1402 1401 1400 1400 1400 1400 1400 1400 1400 1400 1400 1401 1401 1402 1403 1404 1404 1405 1404 1404 1404 1404 1405 1406 1408 1409 1410 1411 1412 1413 1414 1414 1415 1417 1418 1419 1419
1469 1467 1465 1464 1462 1459 1457 1455 1453 1450 1448 1446 1444 1441 1439 1436 1434 1431 1429 1426 1423 1420 1418 1416 1414 1412 1410 1408 1407 1405 1404 1402 1400 1399 1399 1399 1398 1398 1398 1398 1399 1399 1399 1400 1400 1400 1402 1403 1404 1404 1404 1403 1403 1403 1404 1405 1406 1407 1409 1409 1410 1411 1412 1413 1414 1414 1415 1416 1417
1469 1467 1465 1463 1461 1459 1457 1455 1452 1450 1448 1445 1443 1441 1438 1436 1433 1431 1428 1425 1422 1420 1417 1415 1413 1411 1409 1408 1406 1404 1403 1401 1399 1398 1398 1398 1397 1397 1397 1396 1397 1397 1398 1399 1399 1399 1401 1403 1404 1404 1403 1402 1402 1403 1403 1404 1405 1406 1407 1408 1409 1409 1410 1411 1412 1412 1413 1414 1414
1468 1466 1464 1463 1461 1459 1457 1454 1452 1450 1447 1445 1443 1440 1438 1435 1433 1430 1427 1424 1422 1419 1417 1414 1412 1410 1409 1407 1406 1404 1402 1400 1398 1397 1397 1397 1397 1397 1396 1395 1396 1396 1397 1397 1398 1399 1399 1401 1402 1402 1402 1401 1401 1402 1403 1403 1404 1405 1405 1406 1407 1407 1408 1409 1409 1410 1411 1412 1413
1468 1466 1464 1462 1460 1459 1457 1454 1452 1449 1447 1445 1443 1440 1438 1435 1432 1430 1427 1424 1422 1419 1417 1414 1412 1410 1409 1407 1406 1404 1402 1399 1397 1396 1396 1396 1397 1397 1396 1396 1396 1396 1396 1397 1397 1398 1398 1398 1399 1399 1399 1400 1400 1401 1401 1402 1403 1403 1404 1404 1405 1405 1406 1407 1408 1408 1409 1410 1411
1467 1465 1464 1462 1460 1458 1456 1454 1452 1450 1448 1445 1443 1440 1438 1435 1433 1430 1428 1425 1422 1419 1417 1414 1412 1410 1408 1407 1405 1403 1401 1399 1396 1395 1396 1396 1397 1397 1397 1397 1397 1396 1396 1396 1397 1397 1397 1397 1397 1398 1398 1399 1399 1400 1400 1401 1401 1402 1402 1403 1404 1404 1405 1406 1406 1407 1408 1409 1410
1467 1465 1464 1462 1460 1458 1456 1454 1452 1450 1448 1445 1443 1440 1438 1435 1433 1430 1428 1425 1423 1420 1417 1414 1412 1410 1409 1406 1405 1403 1401 1399 1397 1395 1395 1396 1397 1397 1397 1397 1397 1396 1396 1396 1396 1396 1396 1397 1397 1397 1398 1399 1399 1399 1400 1400 1401 1401 1402 1402 1403 1404 1404 1405 1405 1406 1407 1408 1409
1467 1465 1463 1461 1460 1458 1456 1454 1452 1450 1448 1446 1443 1441 1438 1436 1434 1431 1428 1425 1423 1420 1418 1415 1413 1411 1409 1407 1405 1404 1402 1400 1398 1395 1394 1394 1394 1395 1395 1394 1394 1395 1395 1395 1396 1396 1396 1396 1396 1397 1397 1398 1398 1399 1399 1399 1400 1401 1401 1402 1403 1403 1404 1404 1404 1404 1405 1406 1408
1467 1465 1463 1461 1459 1458 1456 1454 1452 1450 1448 1446 1444 1441 1439 1436 1434 1432 1429 1426 1424 1421 1419 1416 1414 1411 1409 1407 1405 1404 1403 1401 1399 1397 1395 1394 1393 1393 1393 1393 1393 1393 1393 1394 1394 1394 1395 1395 1395 1395 1395 1396 1397 1397 1398 1398 1399 1400 1401 1401 1402 1402 1402 1403 1403 1404 1404 1405 1406
1467 1465 1463 1461 1460 1458 1456 1454 1453 1451 1449 1446 1444 1441 1439 1437 1435 1433 1430 1428 1425 1422 1419 1417 1415 1413 1410 1408 1406 1405 1403 1402 1400 1399 1397 1395 1394 1394 1393 1393 1393 1392 1392 1393 1393 1393 1393 1393 1393 1393 1393 1394 1394 1395 1396 1397 1398 1399 1400 1400 1401 1401 1401 1401 1402 1403 1403 1404 1404
1467 1465 1463 1461 1459 1458 1456 1454 1452 1450 1449 1446 1444 1442 1439 1437 1435 1434 1432 1429 1427 1424 1421 1419 1416 1414 1412 1409 1408 1406 1404 1403 1401 1400 1399 1398 1397 1396 1395 1394 1394 1393 1393 1393 1393 1392 1392 1392 1392 1392 1392 1393 1394 1394 1395 1396 1397 1398 1399 1399 1399 1400 1400 1400 1401 1402 1402 1403 1403
1467 1465 1463 1461 1459 1458 1456 1454 1452 1450 1448 1446 1444 1442 1440 1438 1436 1434 1433 1430 1428 1425 1423 1420 1418 1416 1414 1411 1409 1407 1405 1404 1402 1401 1400 1400 1399 1398 1397 1396 1395 1394 1394 1394 1394 1393 1393 1393 1393 1393 1393 1393 1394 1394 1395 1396 1397 1398 1398 1398 1399 1399 1399 1400 1400 1400 1401 1402 1402
1466 1464 1463 1461 1459 1457 1455 1453 1451 1449 1448 1446 1444 1442 1440 1438 1436 1434 1433 1431 1429 1427 1425 1422 1420 1418 1416 1414 1411 1409 1407 1405 1404 1403 1402 1401 1401 1400 1399 1398 1397 1396 1396 1395 1395 1394 1394 1394 1394 1394 1394 1395 1395 1396 1396 1397 1397 1398 1398 1399 1399 1399 1399 1400 1400 1400 1400 1401 1401
1466 1464 1462 1460 1459 1456 1454 1453 1451 1449 1448 1446 1444 1443 1440 1438 1436 1434 1433 1431 1430 1428 1426 1424 1422 1420 1418 1415 1413 1411 1409 1407 1406 1404 1403 1402 1402 1402 1401 1400 1399 1398 1398 1397 1397 1396 1396 1395 1396 1396 1396 1397 1397 1398 1398 1399 1399 1399 1399 1400 1400 1400 1400 1400 1400 1399 1400 1400 1401
1466 1464 1462 1460 1458 1456 1454 1452 1451 1449 1447 1446 1444 1443 1441 1439 1437 1435 1433 1432 1430 1429 1427 1425 1423 1421 1419 1417 1415 1413 1411 1409 1408 1406 1405 1404 1403 1402 1402 1403 1402 1401 1400 1400 1399 1399 1398 1398 1398 1398 1398 1399 1399 1399 1399 1400 1400 1400 1401 1401 1401 1401 1401 1400 1400 1399 1399 1400 1401
1465 1463 1461 1459 1458 1456 1454 1452 1450 1449 1447 1445 1444 1442 1441 1439 1437 1435 1434 1432 1430 1429 1428 1426 1424 1422 1420 1418 1416 1414 1413 1411 1410 1409 1407 1406 1405 1404 1403 1403 1404 1404 1404 1403 1401 1400 1400 1400 1400 1400 1400 1400 1400 1400 1401 1401 1401 1402 1402 1402 1402 1402 1401 1401 1400 1399 1400 1400 1401
1465 1463 1461 1459 1457 1455 1454 1452 1450 1448 1447 1445 1444 1442 1441 1439 1438 1436 1434 1433 1431 1429 1428 1426 1424 1423 1421 1419 1418 1416 1414 1413 1412 1411 1409 1408 1407 1406 1405 1404 1404 1406 1406 1405 1404 1402 1401 1401 1401 1401 1401 1401 1401 1402 1402 1402 1403 1403 1403 1403 1403 1402 1402 1401 1401 1401 1401 1401 1401
1465 1464 1461 1459 1457 1455 1454 1452 1450 1448 1447 1445 1444 1442 1441 1439 1438 1436 1434 1433 1431 1430 1428 1426 1425 1424 1422 1420 1419 1417 1416 1415 1414 1413 1411 1410 1409 1409 1408 1407 1406 1406 1407 1407 1407 1405 1403 1402 1402 1402 1402 1402 1402 1403 1403 1403 1404 1404 1404 1404 1403 1403 1402 1402 1402 1402 1402 1402 1402
1466 1464 1462 1460 1458 1456 1454 1452 1450 1449 1447 1445 1444 1442 1441 1439 1438 1436 1435 1433 1432 1431 1429 1427 1426 1424 1423 1421 1420 1419 1417 1416 1415 1414 1413 1412 1411 1410 1410 1409 1409 1408 1408 1408 1408 1407 1406 1404 1403 1403 1403 1403 1403 1403 1403 1404 1404 1404 1404 1404 1404 1403 1403 1403 1403 1402 1402 1403 1403
1466 1464 1462 1460 1458 1456 1454 1453 1451 1449 1447 1446 1444 1442 1441 1439 1438 1437 1435 1434 1432 1431 1430 1428 1427 1425 1424 1422 1421 1419 1418 1417 1416 1414 1414 1413 1412 1412 1411 1410 1410 1409 1409 1409 1409 1408 1407 1405 1404 1404 1404 1404 1404 1404 1404 1404 1404 1404 1404 1404 1404 1404 1404 1403 1403 1403 1403 1403 1403
1466 1464 1462 1460 1459 1457 1455 1453 1451 1449 1448 1446 1444 1443 1441 1440 1438 1437 1436 1434 1433 1432 1430 1429 1427 1426 1424 1423 1421 1420 1419 1418 1417 1415 1415 1414 1413 1413 1412 1411 1410 1410 1409 1409 1409 1409 1408 1406 1405 1405 1404 1404 1404 1404 1404 1404 1404 1404 1404 1404 1404 1404 1404 1404 1404 1404 1404 1404 1404
1466 1464 1463 1461 1459 1457 1455 1453 1451 1449 1448 1446 1444 1443 1441 1440 1439 1437 1436 1435 1433 1432 1431 1429 1428 1426 1425 1423 1422 1421 1419 1419 1418 1417 1416 1415 1414 1413 1413 1412 1411 1410 1409 1409 1409 1410 1409 1407 1406 1406 1405 1405 1405 1404 1404 1404 1404 1404 1404 1404 1404 1404 1404 1404 1404 1404 1404 1404 1404
1466 1464 1463 1461 1459 1457 1455 1454 1452 1450 1448 1446 1445 1443 1442 1440 1439 1437 1436 1435 1434 1433 1432 1430 1429 1427 1426 1424 1423 1422 1420 1419 1418 1417 1416 1415 1414 1414 1413 1412 1412 1411 1410 1409 1409 1410 1409 1407 1407 1406 1406 1406 1405 1405 1405 1405 1404 1404 1404 1404 1404 1404 1404 1404 1404 1404 1404 1404 1405
1466 1464 1463 1461 1459 1458 1456 1454 1452 1450 1448 1447 1445 1443 1442 1440 1439 1438 1436 1435 1434 1433 1432 1431 1429 1428 1427 1425 1424 1423 1421 1420 1419 1418 1417 1416 1415 1414 1414 1413 1412 1411 1410 1409 1409 1409 1409 1407 1407 1407 1407 1406 1406 1405 1405 1405 1405 1405 1405 1405 1405 1405 1404 1404 1404 1404 1404 1405 1405
1466 1464 1463 1461 1459 1458 1456 1454 1452 1450 1449 1447 1445 1444 1442 1441 1439 1438 1437 1436 1435 1434 1433 1432 1431 1429 1427 1426 1424 1423 1422 1421 1420 1419 1418 1416 1415 1415 1414 1414 1413 1412 1411 1409 1409 1409 1409 1407 1407 1407 1407 1407 1406 1406 1406 1406 1406 1406 1406 1405 1405 1405 1405 1405 1404 1404 1405 1405 1405
1467 1465 1463 1461 1459 1458 1456 1454 1452 1450 1449 1447 1445 1444 1442 1441 1439 1438 1437 1436 1435 1434 1433 1432 1431 1429 1428 1426 1425 1424 1423 1422 1421 1420 1419 1417 1416 1416 1415 1414 1414 1412 1411 1410 1411 1410 1408 1408 1408 1408 1408 1407 1407 1407 1407 1407 1407 1406 1406 1406 1406 1406 1406 1406 1405 1405 1405 1405 1406
1466 1465 1463 1461 1459 1458 1456 1454 1452 1450 1449 1447 1446 1444 1443 1441 1440 1438 1437 1436 1435 1434 1433 1432 1430 1429 1428 1427 1426 1424 1424 1423 1422 1420 1419 1418 1417 1416 1416 1415 1414 1413 1412 1412 1412 1411 1409 1409 1409 1409 1409 1409 1408 1408 1408 1408 1407 1407 1407 1407 1407 1407 1407 1407 1406 1406 1405 1406 1406
1466 1465 1463 1461 1459 1458 1456 1454 1452 1450 1449 1447 1446 1444 1443 1441 1440 1439 1437 1436 1435 1434 1433 1432 1431 1429 1428 1427 1426 1425 1424 1423 1422 1421 1420 1419 1418 1417 1417 1416 1415 1414 1413 1413 1414 1413 1411 1411 1411 1410 1410 1409 1409 1409 1409 1408 1408 1408 1408 1408 1408 1408 1408 1408 1407 1407 1406 1406 1407
1466 1464 1463 1461 1459 1458 1456 1454 1452 1451 1449 1447 1446 1444 1443 1441 1440 1439 1437 1436 1435 1434 1433 1432 1431 1430 1429 1427 1426 1425 1424 1423 1422 1421 1420 1419 1419 1418 1418 1417 1416 1415 1414 1414 1414 1414 1413 1412 1412 1411 1411 1410 1410 1410 1409 1409 1409 1408 1408 1408 1408 1408 1408 1408 1408 1408 1407 1407 1407
1466 1464 1463 1461 1459 1457 1456 1454 1452 1450 1449 1447 1446 1444 1443 1442 1440 1439 1437 1436 1435 1434 1433 1432 1431 1430 1429 1428 1426 1425 1424 1423 1423 1422 1421 1420 1419 1419 1418 1417 1416 1415 1415 1414 1415 1414 1414 1413 1413 1412 1412 1411 1411 1410 1410 1409 1409 1409 1409 1409 1409 1409 1408 1408 1408 1408 1408 1408 1408